This demonstration page uses our WeatherBlox Daily Observations layout. Learn more.

39.01783, -85.05884

Hourly Observations for January 7, 2019

Temp ( °F °C ) Dew Point ( °F °C ) Humidity (%) Winds ( mph kmh ) Pressure ( in mb ) Visibility ( mi km ) Precip ( " mm )
12:52 am 00:52 Cloudy 44 6.7 36 2.2 73 73 E 13 20 30.15 1021 10 16.09344 0 0
1:52 am 01:52 Cloudy 45 7.2 37 2.8 74 74 ESE 17 28 30.15 1021 10 16.09344 0 0
2:52 am 02:52 Cloudy 45 7.2 37 2.8 74 74 ESE 15 24 30.12 1020 10 16.09344 0 0
3:52 am 03:52 Cloudy 45 7.2 37 2.8 74 74 SE 12 19 30.12 1020 10 16.09344 0 0
4:52 am 04:52 Cloudy 45 7.2 37 2.8 74 74 ESE 14 22 30.06 1018 10 16.09344 0 0
5:52 am 05:52 Cloudy 44 6.7 37 2.8 76 76 ESE 8 13 30.09 1019 10 16.09344 0 0
6:52 am 06:52 Cloudy 44 6.7 37 2.8 76 76 SE 12 19 30.06 1018 10 16.09344 0 0
7:52 am 07:52 Cloudy 44 6.7 37 2.8 76 76 SE 10 17 30.06 1018 10 16.09344 0 0
8:52 am 08:52 Mostly Cloudy 45 7.2 38 3.3 77 77 SSE 9 15 30.06 1018 10 16.09344 0 0
9:52 am 09:52 Cloudy 48 8.9 39 3.9 71 71 SSE 12 19 30 1016 10 16.09344 0 0
10:52 am 10:52 Cloudy 51 10.6 41 5 69 69 S 14 22 30 1016 10 16.09344 0 0
11:52 am 11:52 Cloudy 54 12.2 42 5.6 64 64 S 10 17 29.94 1014 10 16.09344 0 0
12:52 pm 12:52 Mostly Cloudy 57 13.9 42 5.6 58 58 S 13 20 29.88 1012 10 16.09344 0 0
1:52 pm 13:52 Cloudy 60 15.6 41 5 50 50 SSW 17 28 29.85 1011 10 16.09344 0 0
2:52 pm 14:52 Cloudy with Light Rain 59 15 41 5 51 51 S 17 28 29.83 1010 10 16.09344 0.001 0.001
3:52 pm 15:52 Cloudy with Light Rain 59 15 40 4.4 49 49 SSW 17 28 29.83 1010 10 16.09344 0.001 0.001
4:52 pm 16:52 Cloudy 59 15 39 3.9 48 48 SSW 20 31 29.83 1010 10 16.09344 0.001 0.001
5:52 pm 17:52 Cloudy 58 14.4 40 4.4 51 51 SW 23 37 29.85 1011 10 16.09344 0 0
6:52 pm 18:52 Cloudy 58 14.4 43 6.1 58 58 SSW 20 31 29.85 1011 10 16.09344 0.001 0.001
7:52 pm 19:52 Cloudy 58 14.4 44 6.7 60 60 SW 16 26 29.88 1012 10 16.09344 0 0
8:52 pm 20:52 Partly Cloudy 57 13.9 45 7.2 64 64 SSW 16 26 29.88 1012 10 16.09344 0 0
9:24 pm 21:24 Mostly Cloudy 57 13.9 46 7.8 67 67 SW 16 26 29.91 1013 10 16.09344 0 0
9:52 pm 21:52 Cloudy 57 13.9 46 7.8 67 67 SW 14 22 29.91 1013 10 16.09344 0 0
10:52 pm 22:52 Cloudy 57 13.9 48 8.9 72 72 SW 10 17 29.91 1013 10 16.09344 0 0
11:26 pm 23:26 Partly Cloudy 55 12.8 48 8.9 77 77 SSW 13 20 29.94 1014 10 16.09344 0 0
11:46 pm 23:46 Cloudy 55 13 48 9 77 77 SSW 10 17 29.94 1014 10 16.09344 0 0
11:52 pm 23:52 Cloudy 56 13.3 48 8.9 75 75 SSW 10 17 29.91 1013 10 16.09344 0 0

Powered by AerisWeather